User: anonymous   Login
Location: Capelle
(50.3413°N, 1.9974°E)
Time: 01:54:05
(UTC+00:00)
Language:

Cosmos 1452 Rocket - Orbit

View from above orbital plane
View from above orbital plane
View from above satellite
View from above satellite

Ground track
Ground track

The orbit is defined by the following mean orbital elements,

1 13992U          26070.83321639 +.00000000 +00000-0 +71854-4 0 00006
2 13992  74.0504 273.1438 0005226 192.5149 167.5876 14.37553787    00
Epoch (UTC): 11 March 2026 19:59:49
Eccentricity: 0.0005226
inclination: 74.0504°
perigee height: 763 km
apogee height: 770 km
right ascension of ascending node: 273.1438°
argument of perigee: 192.5149°
revolutions per day: 14.37553787
mean anomaly at epoch: 167.5876°

The dashed part of the orbit path shows where the satellite is in the earth's shadow,  

DLR